When you browse on this site, cookies collect data to enhance your experience and personalize the content and advertising you see.
Visit our Privacy Policy to learn more. By continuing to use the site, you agree to this use of cookies and data.
  • In Slovakia
  • List of Countries
  • For 7 days
  • Water Temperature
  • Weather Map
  • Weather Widgets
  • user-avatar
    Login

    Hourly Weather Megri

    Today, 5 June, Friday

    Time Temperature Precipitation Wind Pressure Humidity
    00:00 +16°C° 0 mm 2 mps 623 mmHg 44%
    01:00 +15°C° 0 mm 2 mps 623 mmHg 44%
    02:00 +15°C° 0 mm 2 mps 623 mmHg 45%
    03:00 +15°C° 0 mm 2 mps 622 mmHg 45%
    04:00 +15°C° 0 mm 2 mps 623 mmHg 45%
    05:00 +16°C° 0 mm 2 mps 624 mmHg 46%
    06:00 +17°C° 0 mm 2 mps 625 mmHg 47%
    07:00 +18°C° 0 mm 2 mps 625 mmHg 42%
    08:00 +19°C° 0 mm 2 mps 625 mmHg 37%
    09:00 +21°C° 0 mm 2 mps 626 mmHg 32%
    10:00 +23°C° 0 mm 2 mps 626 mmHg 29%
    11:00 +24°C° 0 mm 3 mps 626 mmHg 26%
    12:00 +25°C° 0 mm 4 mps 627 mmHg 23%
    13:00 +26°C° 0 mm 4 mps 626 mmHg 22%
    14:00 +26°C° 0 mm 4 mps 626 mmHg 21%
    15:00 +26°C° 0 mm 4 mps 626 mmHg 21%
    16:00 +25°C° 0 mm 3 mps 626 mmHg 25%
    17:00 +25°C° 0 mm 3 mps 626 mmHg 28%
    18:00 +24°C° 0 mm 2 mps 626 mmHg 32%
    19:00 +21°C° 0.1 mm 2 mps 625 mmHg 43%
    20:00 +19°C° 0.1 mm 2 mps 625 mmHg 54%
    21:00 +16°C° 0.1 mm 2 mps 625 mmHg 65%
    22:00 +16°C° 0.1 mm 2 mps 625 mmHg 68%
    23:00 +15°C° 0.1 mm 2 mps 625 mmHg 71%

    Tomorrow, 6 June, Saturday

    Time Temperature Precipitation Wind Pressure Humidity
    00:00 +15°C° 0.1 mm 2 mps 625 mmHg 74%
    01:00 +14°C° 0 mm 2 mps 625 mmHg 75%
    02:00 +14°C° 0 mm 2 mps 624 mmHg 76%
    03:00 +14°C° 0 mm 2 mps 624 mmHg 77%
    04:00 +14°C° 0 mm 2 mps 625 mmHg 75%
    05:00 +14°C° 0 mm 2 mps 625 mmHg 73%
    06:00 +15°C° 0 mm 2 mps 626 mmHg 71%
    07:00 +16°C° 0.4 mm 2 mps 626 mmHg 65%
    08:00 +18°C° 0.4 mm 2 mps 627 mmHg 58%
    09:00 +19°C° 0.4 mm 2 mps 627 mmHg 51%
    10:00 +20°C° 0.7 mm 2 mps 627 mmHg 48%
    11:00 +20°C° 0.7 mm 2 mps 627 mmHg 46%
    12:00 +21°C° 0.7 mm 2 mps 627 mmHg 43%
    13:00 +21°C° 0.5 mm 3 mps 627 mmHg 44%
    14:00 +21°C° 0.5 mm 3 mps 626 mmHg 45%
    15:00 +21°C° 0.5 mm 4 mps 626 mmHg 46%
    16:00 +20°C° 0.5 mm 4 mps 626 mmHg 51%
    17:00 +19°C° 0.5 mm 4 mps 626 mmHg 57%
    18:00 +17°C° 0.5 mm 4 mps 625 mmHg 62%
    19:00 +15°C° 0 mm 4 mps 625 mmHg 68%
    20:00 +14°C° 0 mm 3 mps 625 mmHg 74%
    21:00 +13°C° 0 mm 3 mps 625 mmHg 80%
    22:00 +12°C° 0 mm 3 mps 625 mmHg 81%
    23:00 +13°C° 0 mm 2 mps 625 mmHg 82%

    Day after tomorrow, 7 June, Sunday

    Time Temperature Precipitation Wind Pressure Humidity
    00:00 +13°C° 0 mm 2 mps 625 mmHg 83%
    01:00 +12°C° 0 mm 2 mps 625 mmHg 83%
    02:00 +12°C° 0 mm 2 mps 624 mmHg 83%
    03:00 +12°C° 0 mm 2 mps 624 mmHg 84%
    04:00 +12°C° 0 mm 2 mps 625 mmHg 80%
    05:00 +13°C° 0 mm 2 mps 625 mmHg 76%
    06:00 +14°C° 0 mm 2 mps 625 mmHg 72%
    07:00 +15°C° 0 mm 2 mps 626 mmHg 65%
    08:00 +17°C° 0 mm 2 mps 626 mmHg 57%
    09:00 +18°C° 0 mm 2 mps 627 mmHg 50%
    10:00 +19°C° 0 mm 3 mps 627 mmHg 47%
    11:00 +20°C° 0 mm 3 mps 627 mmHg 44%
    12:00 +21°C° 0 mm 3 mps 627 mmHg 41%
    13:00 +22°C° 0 mm 4 mps 627 mmHg 41%
    14:00 +22°C° 0 mm 4 mps 626 mmHg 41%
    15:00 +22°C° 0 mm 4 mps 626 mmHg 41%
    16:00 +22°C° 0 mm 4 mps 626 mmHg 44%
    17:00 +21°C° 0 mm 4 mps 626 mmHg 46%
    18:00 +20°C° 0 mm 4 mps 625 mmHg 49%
    19:00 +18°C° 0 mm 4 mps 625 mmHg 53%
    20:00 +17°C° 0 mm 3 mps 625 mmHg 57%
    21:00 +14°C° 0 mm 3 mps 624 mmHg 61%
    22:00 +14°C° 0 mm 2 mps 624 mmHg 61%
    23:00 +14°C° 0 mm 2 mps 624 mmHg 61%

    8 June, Monday

    Time Temperature Precipitation Wind Pressure Humidity
    00:00 +13°C° 0 mm 2 mps 623 mmHg 61%
    01:00 +13°C° 0 mm 2 mps 623 mmHg 60%
    02:00 +12°C° 0 mm 2 mps 622 mmHg 60%
    03:00 +12°C° 0 mm 2 mps 622 mmHg 60%
    04:00 +13°C° 0 mm 2 mps 623 mmHg 57%
    05:00 +14°C° 0 mm 2 mps 623 mmHg 53%
    06:00 +15°C° 0 mm 2 mps 623 mmHg 50%
    07:00 +17°C° 0 mm 2 mps 624 mmHg 43%
    08:00 +18°C° 0 mm 2 mps 624 mmHg 36%
    09:00 +20°C° 0 mm 2 mps 625 mmHg 29%
    10:00 +21°C° 0 mm 2 mps 625 mmHg 28%
    11:00 +22°C° 0 mm 3 mps 625 mmHg 26%
    12:00 +25°C° 0 mm 3 mps 625 mmHg 24%
    13:00 +25°C° 0 mm 3 mps 625 mmHg 26%
    14:00 +25°C° 0 mm 4 mps 625 mmHg 27%
    15:00 +25°C° 0 mm 4 mps 624 mmHg 28%
    16:00 +23°C° 0 mm 4 mps 624 mmHg 32%
    17:00 +22°C° 0 mm 4 mps 624 mmHg 36%
    18:00 +21°C° 0 mm 4 mps 623 mmHg 40%
    19:00 +20°C° 0 mm 4 mps 623 mmHg 42%
    20:00 +18°C° 0 mm 3 mps 623 mmHg 45%
    21:00 +16°C° 0 mm 3 mps 623 mmHg 47%
    22:00 +16°C° 0 mm 3 mps 622 mmHg 47%
    23:00 +14°C° 0 mm 3 mps 622 mmHg 48%

    9 June, Tuesday

    Time Temperature Precipitation Wind Pressure Humidity
    00:00 +14°C° 0 mm 3 mps 622 mmHg 48%
    01:00 +14°C° 0 mm 3 mps 622 mmHg 48%
    02:00 +14°C° 0 mm 2 mps 622 mmHg 48%
    03:00 +14°C° 0 mm 2 mps 621 mmHg 48%
    04:00 +15°C° 0 mm 2 mps 622 mmHg 46%
    05:00 +16°C° 0 mm 2 mps 623 mmHg 45%
    06:00 +17°C° 0 mm 2 mps 623 mmHg 43%
    07:00 +18°C° 0 mm 2 mps 624 mmHg 39%
    08:00 +20°C° 0 mm 2 mps 624 mmHg 36%
    09:00 +22°C° 0 mm 3 mps 625 mmHg 32%
    10:00 +24°C° 0.1 mm 3 mps 625 mmHg 32%
    11:00 +25°C° 0.1 mm 3 mps 625 mmHg 32%
    12:00 +26°C° 0.1 mm 3 mps 625 mmHg 32%
    13:00 +26°C° 0.1 mm 4 mps 625 mmHg 33%
    14:00 +26°C° 0.1 mm 4 mps 625 mmHg 34%
    15:00 +26°C° 0.1 mm 4 mps 624 mmHg 35%
    16:00 +25°C° 0.3 mm 4 mps 624 mmHg 41%
    17:00 +22°C° 0.3 mm 5 mps 624 mmHg 47%
    18:00 +21°C° 0.3 mm 5 mps 623 mmHg 52%
    19:00 +19°C° 0.4 mm 4 mps 623 mmHg 58%
    20:00 +18°C° 0.4 mm 3 mps 624 mmHg 63%
    21:00 +16°C° 0.4 mm 2 mps 624 mmHg 68%
    22:00 +16°C° 0.6 mm 2 mps 624 mmHg 70%
    23:00 +16°C° 0.6 mm 2 mps 624 mmHg 71%

    10 June, Wednesday

    Time Temperature Precipitation Wind Pressure Humidity
    00:00 +15°C° 0.6 mm 2 mps 624 mmHg 72%
    01:00 +15°C° 0.1 mm 2 mps 623 mmHg 72%
    02:00 +15°C° 0.1 mm 1 mps 623 mmHg 72%
    03:00 +14°C° 0.1 mm 1 mps 623 mmHg 72%
    04:00 +15°C° 0 mm 1 mps 623 mmHg 69%
    05:00 +16°C° 0 mm 1 mps 624 mmHg 66%
    06:00 +18°C° 0 mm 1 mps 624 mmHg 62%
    07:00 +19°C° 0 mm 1 mps 625 mmHg 58%
    08:00 +21°C° 0 mm 1 mps 625 mmHg 54%
    09:00 +21°C° 0 mm 2 mps 626 mmHg 49%
    10:00 +23°C° 0.1 mm 2 mps 626 mmHg 46%
    11:00 +25°C° 0.1 mm 2 mps 626 mmHg 43%
    12:00 +26°C° 0.1 mm 2 mps 626 mmHg 39%
    13:00 +26°C° 0.3 mm 2 mps 626 mmHg 39%
    14:00 +26°C° 0.3 mm 2 mps 626 mmHg 38%
    15:00 +26°C° 0.3 mm 3 mps 626 mmHg 38%
    16:00 +25°C° 0.5 mm 4 mps 625 mmHg 44%
    17:00 +22°C° 0.5 mm 4 mps 625 mmHg 51%
    18:00 +21°C° 0.5 mm 5 mps 625 mmHg 58%
    19:00 +19°C° 0.6 mm 4 mps 625 mmHg 61%
    20:00 +18°C° 0.6 mm 3 mps 625 mmHg 65%
    21:00 +17°C° 0.6 mm 2 mps 625 mmHg 69%
    22:00 +17°C° 0.1 mm 2 mps 625 mmHg 68%
    23:00 +17°C° 0.1 mm 2 mps 625 mmHg 68%
    Show more